Location: Newark
(42.8481°N, 0.4872°E)
Time: 22:56:42
(UTC+00:00)

Transit 2A - Pass Details

Date: 31 October 2020
Orbit: 595 x 963 km, 66.7° (Epoch: 03 December)

Event Time Altitude Azimuth Distance (km) Brightness Sun altitude
Rises 01:33:35 0° 242° (WSW) 3,632 - -52.6°
Reaches altitude 10° 01:36:28 10° 252° (WSW) 2,697 - -52.2°
Maximum altitude 01:42:02 31° 314° (NW) 1,603 - -51.4°
Drops below altitude 10° 01:47:31 10° 15° (NNE) 2,636 - -50.6°
Exits shadow 01:48:44 - 21° (NNE) 3,016 9.5 -50.5°
Sets 01:50:19 0° 26° (NNE) 3,539 10.0 -50.2°
